Location: *
(13.2257°S, 48.7193°W)
Time: 13:39:52
(UTC+00:00)

Cosmos 2237 Rocket - Pass Details

Date: 13 February 2026
Orbit: 833 x 850 km, 71.0° (Epoch: 10 March)

Event Time Altitude Azimuth Distance (km) Brightness Sun altitude
Rises 00:07:23 0° 331° (NNW) 3,396 5.4 -33.4°
Enters shadow 00:07:30 - 331° (NNW) 3,347 5.3 -33.4°
Exits shadow 00:17:40 31° 199° (SSW) 1,465 3.7 -35.6°
Drops below altitude 10° 00:20:47 10° 179° (S) 2,480 4.9 -36.3°
Sets 00:23:21 0° 173° (S) 3,418 5.6 -36.8°
